Current weather by "City, St" or "zip code"  
 
Advertise Here

Current Conditions: Orange, Orange County Airport, TX

Overcast


66.0 F

Last Updated on Jan 26 2021, 8:55 am CST
Humidity: 73%
Wind Speed: NE 3.5 mph
Barometer 29.89 in
Dewpoint: 57.0 F
Visibility: 10.00 mi
Precip: --
Heat Index: NA
Wind Chill: NA
Current conditions at:

Orange, Orange County Airport, TX (KORG)

Lat: 30.06917 Lon: 93.80361

Local Radar Image active severe weather and emergency alerts image image weather storm and storm spotter reports image weather observation monitoring service image
Local
Radar
Active
Alerts
Storm Reports Obs
Monitoring

Sign-up For Email & Text Message Weather Alert Notification Services


Advertise Here

Observation History for Orange, Orange County Airport, TX


Time Wind
(mph)
Vis
(mi)
Weather Precip (in) Temperature (F) Relative
Humidity
Wind
Chill
(F)
Heat
Index
(F)
Pressure
Air Dwpt altimeter
(in)
sea level
(mb)
Rmks
8:55 am CST NE 3.5 10.00 Overcast -- 66.0 57.0 73% NA NA 29.89 M
8:35 am CST NE 3.5 10.00 Overcast -- 65.0 56.3 74% NA NA 29.89 M
7:55 am CST N 0.0 10.00 Overcast -- 60.0 58.3 93% NA NA 29.88 M
6:55 am CST N 0.0 10.00 Overcast -- 58.0 56.5 94% NA NA 29.87 M
5:55 am CST N 0.0 10.00 Mostly Cloudy -- 58.0 56.3 94% NA NA 29.85 M
4:55 am CST N 0.0 10.00 Overcast -- 60.0 57.9 93% NA NA 29.86 M
4:35 am CST N 0.0 10.00 Mostly Cloudy -- 60.0 58.1 94% NA NA 29.85 M
3:55 am CST N 0.0 10.00 Overcast -- 59.0 57.7 95% NA NA 29.86 M
2:55 am CST N 0.0 10.00 Mostly Cloudy -- 60.0 58.1 94% NA NA 29.85 M
2:35 am CST N 0.0 10.00 Mostly Cloudy -- 60.0 58.3 93% NA NA 29.85 M
1:55 am CST N 0.0 10.00 Overcast -- 61.0 59.2 93% NA NA 29.85 M
1:35 am CST N 0.0 10.00 Overcast -- 61.0 59.5 94% NA NA 29.85 M
12:55 am CST N 0.0 10.00 Mostly Cloudy -- 61.0 59.0 93% NA NA 29.85 M
11:55 pm CST N 0.0 10.00 Overcast -- 62.0 59.4 92% NA NA 29.84 M
11:35 pm CST N 0.0 10.00 Overcast -- 61.0 59.0 93% NA NA 29.84 M
8:35 pm CST N 0.0 10.00 Overcast -- 65.0 62.4 92% NA NA 29.82 M
7:55 pm CST N 0.0 10.00 Rain 00.02 65.0 62.8 92% NA NA 29.80 M
6:55 pm CST SW 6.9 1.25 Fog/Mist -- 69.0 67.6 95% NA NA 29.77 M
5:55 pm CST SW 5.8 2.00 Fog/Mist -- 70.0 68.0 94% NA NA 29.74 M
4:55 pm CST SW 10.4 4.00 Fog/Mist -- 71.0 68.4 92% NA NA 29.74 M
3:55 pm CST S 12.7 G 18.4 7.00 Overcast -- 73.0 69.1 89% NA NA 29.73 M
2:55 pm CST S 9.2 7.00 Overcast -- 72.0 69.1 91% NA NA 29.72 M
1:55 pm CST SW 11.5 G 17.3 5.00 Fog/Mist -- 71.0 68.5 91% NA NA 29.73 M
12:55 pm CST S 11.5 G 16.1 5.00 Fog/Mist -- 70.0 68.2 93% NA NA 29.75 M

Regional Weather Observation


Beaumont Municipal Airport, TX (KBMT)

Mostly Cloudy
66.0 F

De Quincy Industrial Airpark, LA (K5R8)

Overcast
65.0 F

Southland Field, LA (KUXL)

Overcast
66.0 F

Jasper, Jasper County-Bell Field Airport, TX (KJAS)

Overcast
55.0 F

Beaumont/Port Arthur Southeast Texas Regional Airport, TX (KBPT)

Overcast
67.0 F

Lake Charles Regional Airport, LA (KLCH)

Overcast with Haze
66.0 F